Tracking 18856 objects as of 12-Dec-2017
HD Live streaming from Space Station
objects crossing your sky now

OPS 9314 (IDSCS 4)

Track OPS 9314 (IDSCS 4) now!
OPS 9314 (IDSCS 4) is classified as:


NORAD ID: 2218
Int'l Code: 1966-053E
Perigee: 33,700.0 km
Apogee: 34,021.2 km
Inclination: 3.0 °
Period: 1,338.5 minutes
Semi major axis: 40231 km
RCS: 0.1 m2 (medium)
Launch date: June 16, 1966
Source: United States (US)
Launch site: AIR FORCE EASTERN TEST RANGE (AFETR)
aabbcc
Your satellite tracking list
Your tracking list is empty




NASA's NSSDC Master Catalog

Two Line Element Set (TLE):
1 02218U 66053E   17342.15826937 -.00000101  00000-0  00000+0 0  9993
2 02218   2.9781  58.9409 0039926 126.9095 246.6323  1.07585041201907
Source of the keplerian elements: AFSPC